Wind_Speed
15 15 16 17 17 17 17 18 18 18 18 19 19 21 23 25 26 28 32 30 23 19 23 18 14 10 14 12 12 9 2 5 5 6 3 6 7 33 19 23 20 19 17 10 3
15 15 15 16 17 18 18 18 19 19 19 18 19 21 24 26 29 33 28 30 24 21 22 23 29 15 8 10 9 6 5 10 7 6 2 6 5 24 23 28 23 20 21 12 13
15 15 15 15 16 17 18 19 19 19 20 21 21 22 23 24 28 7 6 11 8 15 30 25 22 26 15 12 10 7 12 8 7 15 17 5 15 13 8 12 31 20 22 26 28
17 17 17 18 18 19 19 20 21 23 23 23 23 24 24 21 7 5 4 3 5 7 23 33 22 14 8 11 17 6 11 19 17 19 16 13 18 20 24 30 33 31 33 31 34
19 19 20 21 21 21 22 21 22 23 24 24 22 23 23 9 21 14 20 24 18 15 11 24 26 17 8 6 11 15 13 16 20 24 24 23 24 27 31 30 33 34 36 37 33
18 18 18 19 19 20 20 22 22 21 22 23 23 20 14 8 22 17 22 20 20 19 11 22 12 21 6 7 13 2 3 18 21 23 21 14 24 27 34 36 32 33 30 30 35
19 21 22 22 22 19 18 16 15 18 19 21 20 16 10 30 28 26 30 29 23 18 18 5 27 14 7 2 16 17 12 12 15 4 6 10 24 29 27 32 35 36 38 37 38
23 22 22 23 20 17 14 14 16 17 18 18 17 10 11 36 23 21 15 16 22 23 20 15 9 10 6 6 5 2 4 13 14 14 9 8 36 14 9 19 30 33 34 34 41
22 22 23 23 21 19 12 14 15 12 11 23 18 11 16 20 16 16 22 24 19 19 17 13 9 8 4 4 3 5 7 9 2 7 9 19 39 16 26 25 30 30 35 43 43
24 24 23 20 17 15 11 14 17 11 12 19 6 8 9 26 36 38 29 23 13 14 17 16 10 4 3 5 16 10 13 1 3 4 11 17 29 18 19 20 20 28 36 38 40
26 24 22 15 12 11 13 16 21 6 21 17 23 21 37 35 34 27 22 18 18 9 7 8 5 15 16 11 8 10 4 1 2 5 8 17 22 19 14 25 28 37 38 39 37
26 25 23 13 8 9 12 13 19 15 11 15 10 11 18 26 21 24 15 5 7 4 1 1 17 5 2 3 8 8 9 11 6 11 6 13 13 15 14 17 24 29 31 32 41
24 24 24 15 5 11 14 13 18 16 4 12 11 13 18 17 8 23 4 4 3 8 6 6 4 3 12 6 6 6 6 5 7 11 19 16 21 17 20 19 29 32 33 33 36
24 22 19 15 5 16 13 17 20 12 2 5 10 8 17 19 4 22 14 8 3 7 6 6 7 6 4 6 11 17 5 7 4 4 8 2 18 25 18 23 16 23 24 29 39
23 19 13 14 14 15 18 20 18 1 3 14 6 16 30 8 15 10 11 7 13 10 2 7 2 5 12 10 7 6 11 8 13 11 4 7 5 15 7 13 22 20 29 40 45
22 16 12 9 14 17 21 24 3 5 4 8 13 18 16 10 5 8 8 15 11 13 9 7 15 4 6 7 8 5 3 10 9 3 7 12 10 25 10 12 10 10 22 29 27
23 14 7 6 13 18 21 12 4 5 6 8 10 16 15 11 7 8 8 5 3 5 3 4 14 20 12 6 4 4 5 1 2 4 11 7 14 21 4 5 6 7 18 26 26
21 10 3 6 11 17 20 5 6 2 6 12 12 16 4 13 6 8 6 6 8 1 2 1 5 8 3 7 6 7 8 4 6 5 5 10 11 8 9 12 24 25 30 27 28
17 8 5 5 8 15 12 5 5 3 6 9 14 5 5 8 5 8 6 2 3 0 3 2 4 4 2 2 4 1 4 7 4 5 1 5 7 9 13 20 14 13 17 20 17
16 4 6 6 8 12 5 3 3 4 11 7 2 3 5 8 6 7 4 2 3 1 1 1 3 3 3 2 5 5 3 3 1 4 5 5 6 10 5 8 6 7 11 18 17
13 2 4 5 7 5 3 4 7 15 16 4 6 8 8 5 4 4 3 4 0 3 2 2 2 3 3 4 6 2 2 3 4 5 3 3 6 6 9 8 11 16 15 20 25
10 2 6 3 5 1 0 3 12 8 18 7 4 5 5 3 4 4 3 4 3 4 2 2 2 3 9 5 3 0 4 4 3 6 5 3 8 8 3 7 10 16 10 23 27
13 5 6 9 2 3 6 5 5 7 13 5 5 2 2 4 3 5 5 4 7 4 2 1 1 3 8 3 2 3 3 3 1 2 7 5 8 1 3 9 15 7 12 27 31
7 4 5 4 5 1 4 4 5 13 13 14 7 3 2 5 7 6 7 5 3 5 4 4 3 6 5 5 4 5 5 2 2 3 6 16 15 20 15 18 19 6 11 25 31
8 2 2 4 4 9 3 4 8 10 4 8 4 4 13 6 10 6 5 4 4 10 3 5 5 6 9 13 14 14 16 13 11 9 6 5 21 18 14 19 17 10 18 18 29
7 6 6 17 14 4 3 3 9 11 6 6 6 18 13 11 13 19 17 6 8 2 6 6 4 4 12 12 16 19 19 17 15 15 10 13 26 12 11 19 1 10 19 17 25
10 4 5 8 4 4 3 7 14 13 10 13 16 17 15 16 17 26 27 29 14 6 8 7 4 5 6 9 11 10 18 19 14 6 11 14 11 7 11 8 3 7 14 16 23
Wind_Direction
356 354 354 351 348 345 341 336 332 326 321 316 308 303 298 295 287 283 275 264 263 253 245 243 232 224 217 215 202 195 118 215 240 181 216 320 19 284 289 303 300 305 321 202 241
354 353 352 349 347 344 341 337 334 332 329 324 318 312 307 306 300 287 282 278 260 249 245 240 239 223 194 215 202 178 183 217 209 207 96 319 252 257 285 287 285 274 285 268 289
2 358 352 348 344 340 336 333 331 328 326 326 323 319 316 317 319 305 167 174 177 235 231 236 239 228 214 202 194 202 224 208 240 241 263 249 273 255 279 259 257 267 279 284 296
2 359 355 350 344 339 335 330 329 328 327 322 319 317 314 317 292 181 222 124 9 307 225 222 220 210 197 205 205 253 212 221 245 256 262 261 273 264 236 249 259 272 282 286 291
359 356 352 347 341 336 330 328 328 326 321 317 313 312 312 306 274 280 277 269 278 309 259 211 215 204 192 198 212 240 240 237 249 260 261 270 260 260 264 260 270 274 277 281 280
353 350 348 342 336 333 333 332 332 331 326 315 311 303 300 278 306 302 306 293 288 267 258 228 217 219 251 210 204 200 195 248 249 253 266 267 271 266 263 272 270 270 268 272 279
356 352 349 345 342 345 347 350 345 329 320 316 308 292 255 267 300 292 288 283 266 248 254 244 224 204 239 273 251 266 282 282 252 194 239 292 274 253 260 266 271 275 284 282 278
352 348 345 343 339 344 353 359 349 315 312 314 315 293 266 306 312 303 314 302 270 234 232 243 211 256 220 282 312 213 169 243 250 231 214 188 256 244 254 254 258 266 270 274 278
346 344 346 344 343 342 349 343 348 330 344 336 319 316 280 321 323 335 346 310 296 229 224 231 231 216 171 170 353 236 241 223 290 201 205 202 257 262 263 264 265 269 270 271 274
345 342 345 342 340 332 333 329 320 279 330 334 344 323 284 303 310 301 288 314 300 211 211 210 208 168 162 163 212 221 230 59 169 223 211 230 252 253 252 258 272 274 273 273 278
340 337 339 338 333 323 333 345 5 332 307 292 289 282 284 313 309 288 298 298 296 247 177 188 161 212 212 225 283 297 323 334 301 244 229 233 253 264 261 256 254 258 261 262 267
339 335 336 338 321 319 341 11 355 323 303 318 293 309 330 321 298 298 269 264 336 304 297 150 228 174 143 177 224 255 269 271 286 276 274 287 289 291 272 261 258 260 263 267 277
341 335 335 344 299 332 327 342 353 337 285 294 300 330 359 350 296 290 231 232 272 285 250 203 251 251 236 246 258 240 230 257 258 297 291 297 291 274 269 255 262 261 262 267 270
346 336 337 346 343 340 357 341 340 335 36 282 327 332 336 352 295 322 12 248 237 234 232 234 244 221 228 244 226 254 234 260 273 213 257 183 289 274 261 256 249 252 256 262 266
346 334 336 332 331 336 343 338 339 307 331 329 324 332 330 317 325 318 359 230 231 223 186 243 226 197 226 232 231 263 226 232 225 249 276 242 282 277 200 246 246 253 251 256 266
345 333 328 323 341 350 338 334 342 49 298 328 337 325 339 340 343 335 351 336 252 234 237 230 274 202 219 228 219 254 241 223 232 169 248 230 220 272 239 238 235 232 248 258 261
345 328 306 331 339 352 342 343 42 87 316 336 318 320 314 338 321 347 325 252 83 5 33 241 249 252 241 221 220 168 85 213 140 194 231 244 202 242 290 277 247 262 269 267 274
349 10 22 359 357 353 343 43 61 312 276 308 315 303 314 1 312 350 353 14 36 138 269 245 284 223 198 198 193 187 169 184 184 190 237 235 238 252 232 240 257 265 261 265 267
2 23 40 3 359 359 357 47 200 237 276 323 322 331 330 345 313 350 331 267 208 246 186 344 226 337 154 179 155 230 176 205 3 229 199 245 283 289 270 269 262 258 256 247 233
355 54 40 11 353 349 58 292 252 244 309 298 275 270 312 311 321 336 291 273 322 313 300 276 288 290 339 12 212 177 214 145 96 237 241 259 251 232 303 265 307 251 228 221 199
358 50 22 357 334 357 120 241 283 300 321 305 272 289 298 316 272 274 285 303 118 340 342 21 93 285 330 203 205 158 241 222 184 211 228 290 255 211 229 288 290 291 238 201 176
3 51 333 300 10 52 327 268 295 302 329 298 236 251 253 304 274 270 275 235 156 166 200 214 133 262 240 244 273 65 211 167 180 237 249 247 259 289 304 321 304 296 193 168 169
344 316 33 349 66 312 300 291 267 325 313 310 285 288 179 263 304 264 269 295 270 183 184 142 102 335 323 33 133 208 201 210 205 298 240 226 269 320 108 355 346 22 145 146 158
352 354 332 7 37 131 310 280 300 324 307 336 275 276 297 262 228 266 260 288 332 228 185 126 196 179 206 260 356 299 270 219 216 233 240 241 302 280 311 338 332 136 142 144 153
6 350 13 306 334 312 271 270 320 340 294 306 278 325 315 279 294 242 239 275 279 262 126 141 226 212 239 255 268 265 265 258 231 246 243 309 252 274 320 298 297 178 142 158 150
6 358 327 298 287 282 285 263 314 323 312 286 282 312 302 275 253 277 273 234 262 283 156 176 262 279 278 259 254 265 251 244 242 238 253 267 274 273 277 309 161 153 155 176 153
342 327 277 273 283 286 259 314 309 317 295 266 296 306 297 289 297 285 273 269 240 219 197 188 217 265 268 308 328 260 230 224 221 207 199 239 273 304 305 298 304 138 183 174 174
Height
1519 1516 1514 1512 1509 1507 1505 1503 1500 1498 1495 1493 1492 1489 1486 1484 1481 1479 1475 1479 1481 1484 1486 1486 1485 1486 1488 1490 1491 1491 1500 1502 1491 1487 1481 1475 1473 1465 1473 1474 1475 1476 1478 1474 1473
1519 1516 1514 1512 1509 1506 1504 1501 1498 1495 1494 1492 1489 1485 1482 1479 1475 1469 1473 1470 1473 1478 1479 1480 1481 1484 1484 1484 1485 1485 1495 1489 1477 1477 1479 1478 1480 1475 1470 1470 1469 1473 1474 1473 1475
1519 1516 1513 1510 1507 1505 1501 1498 1495 1493 1491 1487 1486 1483 1480 1478 1473 1466 1465 1463 1464 1467 1470 1476 1478 1480 1480 1479 1477 1478 1474 1475 1472 1475 1478 1481 1476 1481 1477 1471 1468 1465 1467 1467 1468
1519 1515 1512 1509 1506 1503 1500 1496 1493 1490 1487 1486 1483 1480 1479 1478 1480 1466 1465 1462 1461 1462 1462 1467 1473 1474 1473 1472 1470 1473 1465 1469 1469 1472 1475 1477 1477 1471 1471 1464 1464 1462 1462 1461 1463
1519 1515 1512 1509 1505 1501 1498 1495 1492 1490 1486 1483 1480 1479 1477 1475 1470 1468 1464 1460 1461 1461 1460 1463 1465 1465 1466 1464 1469 1464 1460 1465 1467 1468 1469 1473 1469 1464 1458 1462 1460 1457 1455 1456 1458
1519 1515 1512 1508 1504 1500 1496 1493 1489 1486 1483 1480 1477 1474 1474 1474 1462 1461 1459 1458 1458 1459 1460 1461 1460 1461 1463 1461 1461 1456 1456 1459 1462 1465 1466 1468 1461 1461 1449 1450 1453 1452 1451 1452 1450
1517 1514 1510 1505 1500 1497 1494 1491 1489 1485 1481 1478 1475 1472 1472 1462 1457 1455 1454 1451 1452 1454 1455 1457 1458 1460 1458 1459 1456 1453 1457 1455 1455 1462 1463 1464 1451 1441 1447 1448 1444 1442 1441 1441 1441
1515 1511 1508 1504 1499 1495 1492 1490 1487 1483 1479 1476 1473 1471 1465 1455 1451 1447 1449 1448 1446 1448 1450 1453 1455 1456 1456 1456 1453 1454 1456 1459 1446 1455 1457 1465 1427 1433 1439 1441 1438 1438 1437 1436 1434
1514 1510 1506 1502 1497 1493 1491 1489 1487 1482 1477 1475 1472 1470 1461 1455 1451 1450 1449 1445 1444 1444 1448 1451 1452 1452 1454 1459 1462 1457 1459 1454 1453 1445 1450 1452 1410 1430 1436 1437 1432 1433 1433 1429 1427
1513 1509 1505 1501 1497 1494 1491 1489 1486 1480 1477 1474 1470 1471 1460 1454 1447 1445 1446 1447 1442 1443 1446 1447 1448 1450 1454 1457 1452 1452 1451 1450 1450 1444 1443 1441 1423 1428 1431 1430 1428 1427 1425 1422 1420
1512 1508 1504 1501 1498 1495 1492 1489 1487 1482 1478 1476 1469 1469 1458 1448 1447 1438 1443 1444 1440 1440 1442 1441 1448 1442 1441 1444 1447 1446 1451 1453 1445 1440 1442 1434 1429 1428 1428 1424 1421 1417 1415 1413 1412
1511 1506 1503 1499 1496 1494 1491 1490 1490 1489 1476 1469 1465 1458 1452 1448 1442 1435 1440 1444 1441 1441 1438 1441 1434 1438 1440 1442 1446 1448 1452 1454 1450 1446 1446 1435 1434 1426 1422 1417 1412 1409 1407 1408 1407
1509 1505 1500 1497 1494 1493 1490 1489 1487 1484 1480 1466 1462 1453 1448 1446 1442 1434 1439 1440 1441 1441 1440 1441 1435 1435 1440 1442 1445 1447 1450 1453 1457 1448 1438 1438 1423 1420 1409 1408 1403 1400 1400 1400 1400
1506 1502 1498 1495 1495 1491 1488 1486 1484 1481 1486 1469 1460 1454 1450 1445 1442 1438 1438 1441 1439 1439 1437 1439 1434 1435 1438 1439 1443 1448 1445 1447 1449 1454 1458 1438 1434 1407 1400 1393 1394 1392 1392 1392 1389
1505 1500 1497 1494 1493 1490 1487 1483 1481 1481 1488 1467 1461 1458 1453 1449 1443 1436 1438 1438 1435 1434 1435 1437 1432 1432 1434 1434 1436 1440 1438 1442 1445 1450 1451 1447 1457 1384 1386 1390 1383 1383 1384 1382 1382
1502 1498 1495 1494 1492 1489 1484 1480 1480 1489 1495 1470 1465 1460 1453 1447 1444 1440 1436 1434 1430 1430 1431 1432 1426 1428 1429 1428 1430 1431 1433 1439 1445 1453 1461 1440 1447 1369 1388 1383 1379 1376 1375 1375 1375
1498 1494 1492 1492 1491 1487 1483 1479 1489 1499 1481 1474 1469 1461 1455 1447 1443 1441 1437 1433 1433 1436 1435 1428 1428 1422 1423 1428 1427 1431 1444 1458 1464 1464 1442 1419 1428 1378 1379 1374 1375 1374 1372 1371 1372
1495 1492 1491 1491 1490 1487 1482 1482 1496 1488 1484 1474 1469 1461 1456 1451 1446 1443 1439 1438 1434 1438 1444 1442 1436 1422 1418 1422 1428 1433 1438 1450 1445 1447 1433 1417 1412 1386 1368 1365 1362 1363 1363 1365 1366
1495 1492 1492 1492 1489 1487 1485 1501 1501 1489 1482 1474 1468 1464 1460 1455 1453 1446 1441 1441 1438 1438 1437 1436 1428 1419 1417 1419 1423 1426 1435 1427 1437 1429 1436 1415 1390 1374 1361 1357 1358 1357 1358 1359 1360
1494 1492 1491 1491 1490 1488 1490 1494 1489 1484 1478 1475 1477 1470 1467 1461 1457 1452 1444 1439 1437 1437 1437 1434 1438 1424 1420 1420 1420 1423 1423 1434 1441 1439 1434 1411 1399 1382 1364 1360 1357 1355 1351 1352 1355
1493 1491 1492 1491 1490 1489 1501 1495 1485 1479 1477 1474 1470 1466 1463 1460 1458 1453 1444 1439 1437 1437 1438 1438 1439 1431 1424 1423 1424 1424 1426 1426 1425 1428 1427 1417 1393 1364 1360 1363 1359 1347 1343 1346 1351
1493 1493 1492 1491 1493 1493 1496 1490 1484 1477 1474 1469 1465 1461 1461 1460 1457 1452 1445 1441 1437 1439 1441 1438 1441 1443 1429 1417 1415 1418 1419 1423 1432 1422 1419 1414 1381 1351 1355 1359 1356 1344 1340 1346 1354
1496 1494 1492 1491 1502 1501 1491 1486 1482 1477 1471 1470 1467 1461 1461 1460 1461 1449 1442 1436 1435 1437 1436 1435 1442 1444 1428 1421 1419 1421 1418 1419 1423 1422 1417 1412 1377 1354 1355 1361 1356 1352 1349 1348 1356
1499 1498 1493 1491 1493 1495 1494 1486 1482 1477 1472 1469 1465 1461 1460 1456 1453 1448 1441 1436 1435 1435 1433 1434 1441 1438 1442 1431 1429 1428 1419 1417 1421 1427 1406 1390 1387 1363 1362 1366 1362 1355 1356 1353 1358
1503 1502 1501 1499 1494 1493 1494 1487 1482 1476 1473 1468 1462 1460 1460 1453 1448 1444 1438 1436 1433 1432 1433 1436 1440 1432 1430 1428 1427 1426 1420 1416 1415 1413 1412 1397 1381 1365 1377 1368 1359 1356 1356 1363 1359
1507 1507 1503 1499 1494 1492 1489 1482 1480 1475 1475 1468 1464 1457 1454 1449 1445 1437 1435 1434 1432 1429 1430 1434 1435 1428 1424 1422 1421 1417 1411 1408 1405 1403 1402 1400 1379 1373 1373 1365 1358 1359 1359 1367 1362
1507 1506 1504 1495 1491 1490 1485 1482 1479 1477 1468 1465 1460 1453 1445 1439 1436 1430 1426 1422 1425 1426 1429 1431 1430 1426 1421 1413 1416 1402 1390 1394 1393 1391 1393 1390 1374 1371 1369 1367 1363 1361 1365 1366 1367